Wind_Speed
26 27 25 25 23 24 26 24 22 20 17 15 14 14 16 19 18 16 14 8 8 5 7 4 3 1 3 4 4 4 3 3 3 6 1 2 7 1 4 1 4 2 2 3 2
25 26 28 29 26 25 25 26 24 21 19 16 14 14 15 18 20 17 12 12 10 8 8 6 4 2 2 3 4 3 3 7 2 3 1 4 3 10 1 6 3 5 1 2 4
25 27 26 28 28 28 26 26 25 23 20 18 15 13 13 14 18 3 3 5 7 9 9 6 4 3 2 3 4 3 4 3 1 4 4 3 5 4 2 1 6 4 7 9 7
25 27 28 29 31 28 28 25 26 23 22 20 17 14 12 9 4 2 4 3 2 7 7 6 5 3 2 3 3 2 4 4 1 1 4 7 9 5 7 12 10 12 12 15 16
29 28 30 29 33 30 28 24 25 25 23 21 18 15 12 9 15 9 5 8 3 3 5 6 7 5 3 2 2 3 2 3 6 10 13 13 15 8 20 24 20 19 20 18 19
32 29 29 30 29 30 31 26 24 23 23 21 18 16 13 9 15 15 17 15 10 5 5 5 4 7 3 2 2 2 4 8 8 15 10 8 9 4 21 16 19 14 11 11 7
34 36 31 29 30 26 30 29 23 21 22 20 19 17 19 26 9 10 12 11 12 9 6 6 6 5 5 0 0 1 5 7 8 4 7 7 6 10 25 13 9 5 3 5 6
39 36 35 30 26 30 30 26 21 20 18 20 18 18 16 20 25 25 11 11 11 8 6 7 5 4 3 0 3 1 2 4 1 4 2 7 9 7 7 6 10 13 12 11 13
42 39 40 32 30 32 27 29 21 19 19 20 17 15 13 13 27 28 25 19 13 7 8 8 5 4 4 3 2 4 4 4 7 2 2 6 7 3 5 9 14 18 20 22 22
43 43 40 37 31 29 29 26 22 20 22 21 15 5 21 11 19 22 26 26 20 12 9 6 3 3 3 6 9 6 4 4 7 1 2 4 14 15 20 20 22 28 30 29 29
43 42 42 40 33 31 33 27 23 14 34 27 14 15 0 6 11 12 22 23 19 16 9 5 6 13 17 12 3 5 3 6 5 4 7 15 17 14 20 21 31 30 25 24 28
41 42 43 41 35 32 32 35 40 18 9 30 22 27 22 1 6 15 15 17 16 15 10 5 17 14 7 9 10 7 8 11 14 11 6 10 16 18 20 27 27 30 27 25 29
40 42 42 41 35 33 35 47 33 19 7 18 38 27 13 27 9 13 19 12 10 14 20 19 6 16 13 9 10 9 11 8 11 9 8 10 16 8 7 18 20 23 24 24 22
42 41 42 41 35 40 40 51 32 20 4 11 16 27 34 11 9 30 27 13 6 19 11 13 11 8 14 15 13 10 12 10 9 5 8 3 10 10 7 12 12 24 20 19 16
43 42 44 48 38 37 50 47 42 31 9 14 19 15 31 31 12 21 28 15 9 9 9 10 10 19 15 9 16 7 6 9 4 6 4 5 7 3 1 6 14 14 19 13 12
41 42 45 45 46 42 41 49 41 9 13 11 15 20 19 31 24 14 23 16 9 8 4 7 3 9 8 6 18 9 7 4 3 2 8 13 11 15 8 13 5 14 14 12 12
37 43 49 48 57 48 32 52 14 13 11 14 12 21 24 18 27 14 18 21 11 10 12 5 8 3 5 7 10 10 9 2 3 4 10 6 13 19 6 8 10 10 12 12 13
38 42 49 52 48 40 39 17 19 18 23 14 16 22 22 18 21 27 20 19 23 10 9 14 10 15 9 7 10 18 11 6 8 5 7 4 9 6 17 22 20 16 17 12 17
38 48 51 50 48 45 36 18 11 27 29 18 23 22 15 17 13 23 29 29 23 22 15 11 11 7 10 6 12 7 11 8 5 4 7 9 13 10 8 11 8 16 17 15 18
43 43 48 53 51 40 8 27 6 15 24 22 18 13 19 26 15 23 25 22 21 28 13 7 4 6 15 14 15 9 12 4 3 6 9 7 9 11 5 13 13 12 11 10 18
38 20 29 46 38 21 11 8 18 25 23 24 16 10 14 22 19 24 26 10 30 23 21 5 4 2 11 12 19 8 8 5 6 5 6 5 8 5 12 12 11 12 12 14 22
20 7 21 39 10 3 7 8 12 15 35 22 10 5 15 22 20 19 19 24 28 22 29 21 4 6 10 1 8 20 17 13 7 7 6 6 13 4 4 5 8 11 10 15 22
17 6 19 33 9 13 4 9 16 18 17 27 7 5 10 16 11 16 18 13 14 25 22 20 7 6 4 7 4 13 14 16 13 2 15 7 11 3 1 2 2 7 14 20 24
9 4 7 22 11 12 10 12 20 18 20 13 14 9 8 12 4 19 9 3 18 28 18 27 5 20 17 5 10 10 20 17 18 10 22 16 26 15 4 2 4 10 16 18 21
12 5 7 5 9 12 23 15 21 9 22 8 5 16 10 8 14 8 12 5 5 17 11 13 15 14 15 2 9 12 18 21 20 25 13 26 20 24 12 9 12 16 18 19 20
9 6 8 2 8 18 17 21 29 28 13 21 12 12 6 10 9 10 14 6 7 3 14 3 4 7 12 12 9 4 11 25 26 24 22 28 30 6 3 7 12 20 22 21 22
16 13 7 6 5 13 10 15 25 25 8 34 13 13 5 3 10 13 11 10 11 14 14 11 6 4 8 6 6 4 22 19 14 20 18 22 26 6 8 13 21 24 24 25 26
Wind_Direction
250 254 258 248 246 242 244 247 247 250 255 261 275 285 297 301 299 301 300 287 280 261 224 258 271 232 198 172 148 137 102 189 227 170 177 18 3 21 337 316 334 269 230 181 207
251 250 250 254 245 240 241 241 246 248 253 259 268 282 294 304 306 303 281 267 258 240 236 235 234 227 176 161 172 131 174 210 212 195 245 316 311 309 126 344 307 307 232 324 307
247 246 246 247 248 248 239 239 241 250 253 257 264 275 290 304 317 293 275 253 238 228 231 229 229 214 193 175 189 167 211 204 224 239 290 274 280 280 68 245 233 265 299 293 282
254 245 241 241 245 250 245 240 239 240 251 256 258 267 277 285 266 157 71 43 239 217 226 218 204 183 166 207 185 231 237 200 268 232 303 295 296 276 205 245 282 288 279 278 274
257 250 237 242 242 243 250 246 240 235 242 251 257 263 271 253 240 235 263 297 291 195 191 189 191 180 194 187 167 205 277 221 252 281 280 276 265 279 278 280 287 283 276 268 270
255 252 249 236 241 238 245 238 246 232 236 244 251 256 256 245 255 250 256 259 260 244 208 196 198 197 178 188 190 202 282 276 274 264 251 240 263 291 269 282 284 284 270 246 253
248 253 250 251 230 242 233 240 242 234 233 237 247 253 252 241 248 244 245 233 234 230 221 205 197 192 170 204 307 264 303 309 230 251 237 226 247 224 263 279 267 270 241 236 271
251 245 250 246 239 233 231 227 233 231 235 231 239 249 254 256 251 239 226 218 203 215 203 193 190 180 194 172 22 356 107 304 309 172 316 194 265 252 265 232 306 287 275 280 283
249 244 247 242 244 223 241 219 224 227 231 230 231 233 267 247 246 242 235 231 207 209 193 182 177 175 137 126 346 12 261 247 304 216 151 217 278 293 194 287 304 304 292 286 286
246 243 240 244 238 230 226 197 203 212 214 212 215 209 244 230 245 240 229 225 223 217 195 198 181 164 134 171 228 187 226 233 250 65 116 239 261 277 276 286 291 294 292 288 287
243 237 234 238 234 233 210 209 176 198 198 198 202 209 100 221 207 221 222 207 198 198 185 181 202 212 196 204 157 134 196 268 265 224 315 269 265 265 280 282 282 281 276 277 278
240 233 231 229 226 233 219 209 192 199 194 209 220 217 221 359 211 231 196 170 182 197 150 196 232 222 214 191 212 209 237 259 288 282 200 277 267 267 259 260 260 266 273 274 284
233 231 226 227 221 228 224 218 196 176 182 209 219 219 225 229 237 223 189 184 186 181 193 205 214 200 196 197 197 222 218 229 255 314 266 293 280 257 249 250 259 259 265 271 277
228 226 220 219 216 222 221 220 211 188 218 196 200 227 221 220 245 223 203 174 186 201 172 227 212 156 199 221 198 238 212 223 235 274 272 1 294 279 251 251 266 275 264 265 278
223 221 218 213 206 212 214 205 194 190 211 193 183 189 199 196 141 202 197 198 176 167 171 214 187 200 209 196 183 218 172 193 187 209 310 241 275 232 209 245 251 251 250 254 250
220 216 214 212 214 224 215 202 205 214 199 156 144 174 158 201 197 155 182 196 186 166 241 215 199 196 207 188 171 146 125 107 84 158 259 212 218 279 216 235 241 253 259 240 222
217 211 209 207 211 214 212 200 213 208 156 152 162 172 173 178 198 177 184 192 178 180 202 187 218 206 167 121 166 166 140 192 220 191 249 186 212 258 254 243 231 231 239 219 235
213 207 206 212 214 212 205 201 231 173 193 147 152 169 184 157 200 193 184 195 213 205 182 203 222 190 182 177 170 190 179 182 206 206 276 139 237 252 225 232 236 237 245 259 223
205 205 204 212 210 206 206 219 218 163 186 149 146 161 197 183 164 182 200 203 198 200 205 188 229 174 188 176 150 179 217 217 269 224 275 251 268 268 240 236 226 236 241 231 214
193 191 200 207 207 211 221 219 216 212 187 165 165 180 174 179 167 184 188 209 207 201 200 196 206 199 189 195 222 199 139 166 211 217 234 242 262 240 211 220 228 237 231 214 201
183 187 203 202 204 216 222 221 224 255 254 196 179 154 174 171 182 185 191 188 195 192 198 166 188 116 150 203 185 174 194 200 168 191 220 275 262 211 220 205 219 240 225 206 191
182 175 191 194 195 187 237 191 202 248 238 208 190 131 163 173 176 183 193 199 192 177 192 200 140 185 197 135 208 211 204 176 192 194 232 251 265 150 117 157 200 248 219 189 186
145 134 166 186 204 216 215 204 197 216 233 209 204 146 168 165 167 185 200 197 176 181 185 180 205 189 234 263 186 213 209 211 216 108 218 188 252 138 273 159 262 224 184 180 183
141 140 183 186 206 216 202 202 203 233 234 198 203 156 146 170 175 188 181 161 188 190 180 166 160 208 213 208 155 196 202 205 198 215 238 226 252 241 222 205 156 181 181 176 179
175 189 152 189 220 208 205 183 197 209 215 203 187 194 176 160 186 171 172 131 109 186 167 170 210 205 223 76 181 203 193 198 198 218 205 248 234 256 255 221 202 181 172 171 174
151 152 166 203 169 190 210 203 193 203 189 215 175 188 155 163 197 175 160 156 164 110 175 177 187 170 228 220 218 221 218 219 213 222 232 249 261 258 260 163 181 194 177 174 173
169 161 155 165 213 193 205 198 193 174 229 205 187 171 106 122 108 93 92 101 145 163 176 165 150 143 229 175 160 229 231 231 225 232 231 234 249 203 220 206 194 189 184 174 167
Height
1495 1498 1500 1501 1503 1506 1510 1512 1515 1517 1518 1520 1521 1522 1522 1521 1521 1520 1519 1520 1520 1520 1521 1521 1522 1523 1523 1524 1524 1525 1529 1532 1528 1532 1524 1524 1523 1522 1521 1521 1521 1520 1521 1522 1522
1489 1492 1495 1496 1498 1501 1504 1508 1511 1514 1516 1518 1519 1520 1520 1520 1518 1517 1518 1516 1517 1518 1519 1520 1521 1522 1523 1523 1524 1524 1528 1524 1524 1524 1524 1524 1524 1520 1521 1522 1520 1519 1520 1521 1521
1482 1486 1489 1492 1494 1497 1500 1504 1508 1512 1514 1516 1517 1518 1519 1519 1518 1515 1515 1514 1515 1516 1517 1518 1520 1521 1522 1523 1523 1524 1523 1523 1521 1523 1523 1522 1522 1519 1521 1521 1519 1519 1519 1519 1519
1476 1479 1483 1487 1490 1493 1496 1500 1504 1508 1512 1514 1515 1516 1517 1519 1521 1514 1515 1515 1515 1514 1516 1517 1519 1520 1521 1521 1522 1524 1521 1522 1521 1521 1521 1519 1518 1517 1518 1513 1515 1516 1516 1516 1515
1469 1472 1476 1481 1484 1489 1493 1497 1500 1504 1508 1511 1513 1515 1516 1516 1512 1513 1514 1515 1516 1514 1515 1516 1517 1518 1519 1520 1522 1522 1521 1521 1520 1520 1518 1518 1515 1517 1512 1510 1511 1511 1510 1511 1510
1463 1466 1470 1473 1479 1484 1487 1492 1496 1499 1504 1508 1510 1512 1514 1514 1509 1510 1511 1514 1515 1514 1514 1515 1516 1517 1518 1519 1520 1521 1520 1519 1518 1516 1515 1515 1513 1515 1504 1506 1506 1505 1505 1506 1506
1456 1459 1463 1468 1471 1478 1483 1488 1492 1496 1501 1505 1508 1509 1508 1503 1506 1507 1509 1510 1512 1514 1513 1514 1516 1517 1516 1517 1519 1519 1519 1514 1511 1512 1512 1511 1511 1508 1498 1503 1502 1502 1502 1504 1504
1448 1453 1455 1460 1465 1472 1477 1484 1490 1494 1498 1502 1504 1505 1498 1500 1502 1503 1507 1508 1510 1511 1513 1514 1515 1516 1516 1518 1518 1519 1520 1518 1509 1510 1509 1509 1504 1498 1498 1501 1501 1499 1499 1500 1500
1439 1444 1448 1454 1460 1464 1472 1479 1486 1491 1496 1499 1502 1502 1496 1493 1494 1500 1502 1506 1508 1510 1512 1513 1514 1515 1516 1518 1521 1523 1519 1522 1513 1507 1508 1509 1503 1496 1497 1497 1497 1495 1494 1493 1492
1428 1435 1440 1447 1453 1458 1468 1473 1481 1488 1492 1495 1497 1504 1491 1486 1489 1492 1495 1500 1505 1508 1511 1512 1513 1513 1516 1515 1516 1519 1520 1521 1517 1507 1508 1508 1504 1496 1497 1496 1492 1489 1488 1488 1487
1418 1425 1432 1439 1447 1454 1461 1466 1472 1483 1479 1475 1478 1481 1479 1481 1486 1486 1489 1494 1501 1505 1506 1509 1510 1506 1505 1505 1510 1513 1517 1516 1508 1505 1507 1502 1500 1494 1493 1493 1487 1485 1482 1481 1480
1408 1415 1423 1431 1440 1448 1453 1453 1450 1456 1473 1474 1477 1479 1479 1479 1482 1484 1486 1490 1493 1495 1503 1509 1499 1498 1505 1509 1510 1513 1517 1516 1507 1502 1506 1498 1496 1490 1489 1480 1480 1476 1475 1473 1472
1398 1406 1415 1423 1435 1442 1442 1446 1454 1457 1466 1468 1469 1474 1476 1480 1479 1478 1483 1483 1485 1491 1491 1491 1488 1493 1501 1505 1510 1511 1513 1514 1512 1504 1498 1499 1480 1479 1475 1474 1471 1467 1467 1466 1466
1387 1397 1407 1419 1433 1430 1433 1442 1451 1455 1459 1455 1460 1459 1469 1475 1472 1473 1477 1481 1484 1483 1492 1492 1488 1492 1496 1496 1501 1509 1504 1506 1510 1515 1509 1500 1488 1474 1470 1465 1464 1461 1461 1459 1461
1376 1387 1399 1407 1412 1420 1416 1433 1446 1451 1449 1429 1438 1445 1449 1461 1459 1462 1471 1476 1476 1480 1485 1478 1483 1484 1488 1487 1493 1498 1499 1503 1508 1512 1512 1500 1500 1460 1469 1467 1456 1451 1451 1454 1456
1367 1378 1390 1400 1408 1407 1421 1428 1435 1430 1410 1412 1420 1430 1442 1447 1451 1457 1463 1470 1472 1477 1477 1475 1477 1478 1475 1481 1486 1492 1499 1505 1510 1510 1508 1492 1490 1442 1456 1455 1450 1446 1448 1451 1451
1359 1369 1380 1390 1384 1402 1415 1422 1404 1387 1382 1401 1410 1418 1421 1432 1445 1446 1455 1461 1461 1473 1474 1477 1474 1473 1473 1481 1487 1486 1494 1511 1514 1515 1491 1476 1485 1447 1449 1448 1444 1443 1444 1445 1448
1352 1362 1369 1375 1391 1399 1409 1406 1368 1369 1373 1373 1393 1411 1414 1423 1429 1433 1447 1451 1452 1451 1455 1466 1473 1465 1464 1464 1475 1480 1481 1489 1495 1498 1473 1484 1469 1442 1436 1438 1440 1439 1441 1442 1443
1347 1353 1362 1370 1382 1394 1395 1371 1361 1361 1359 1365 1391 1403 1412 1411 1415 1428 1429 1429 1432 1440 1446 1457 1458 1451 1453 1456 1459 1483 1483 1471 1481 1488 1489 1456 1442 1440 1439 1437 1438 1436 1437 1438 1442
1339 1348 1352 1364 1376 1380 1374 1367 1373 1361 1353 1355 1361 1377 1389 1396 1405 1411 1421 1413 1423 1428 1436 1441 1451 1445 1447 1456 1455 1457 1463 1481 1485 1486 1484 1451 1456 1440 1437 1433 1430 1430 1433 1437 1441
1336 1342 1347 1358 1372 1372 1362 1370 1368 1363 1360 1355 1351 1369 1372 1384 1390 1400 1401 1405 1412 1421 1433 1435 1439 1451 1445 1444 1444 1459 1460 1463 1463 1469 1462 1461 1433 1425 1422 1423 1426 1427 1430 1434 1438
1331 1338 1344 1352 1364 1359 1354 1355 1358 1362 1362 1352 1351 1356 1363 1373 1383 1391 1391 1389 1395 1408 1422 1421 1437 1446 1439 1436 1435 1435 1434 1443 1450 1464 1461 1450 1426 1422 1420 1422 1425 1426 1430 1432 1438
1326 1334 1343 1349 1349 1357 1359 1356 1354 1357 1355 1349 1349 1348 1357 1364 1379 1380 1382 1385 1388 1399 1403 1416 1430 1442 1444 1438 1434 1433 1433 1435 1438 1453 1444 1450 1421 1418 1420 1421 1424 1426 1428 1430 1435
1322 1330 1338 1340 1343 1349 1352 1346 1351 1353 1354 1345 1346 1346 1354 1361 1360 1372 1377 1381 1384 1388 1398 1404 1415 1411 1407 1408 1413 1430 1425 1429 1433 1448 1426 1430 1407 1409 1418 1420 1424 1427 1428 1430 1433
1314 1320 1321 1329 1336 1338 1341 1336 1339 1345 1345 1341 1343 1340 1343 1358 1358 1364 1368 1381 1384 1386 1396 1400 1403 1407 1402 1408 1406 1406 1413 1420 1426 1414 1429 1404 1415 1399 1409 1417 1419 1422 1426 1427 1430
1308 1313 1321 1323 1324 1331 1328 1325 1327 1337 1334 1337 1336 1337 1341 1348 1346 1354 1354 1368 1372 1389 1390 1398 1405 1405 1405 1406 1408 1413 1412 1405 1403 1406 1409 1402 1393 1402 1412 1414 1418 1420 1420 1422 1425
1299 1305 1310 1315 1316 1318 1313 1312 1314 1324 1333 1331 1333 1334 1343 1346 1348 1354 1356 1360 1363 1372 1383 1392 1400 1407 1403 1401 1413 1423 1402 1400 1402 1399 1400 1404 1381 1401 1406 1408 1410 1415 1416 1417 1420